Location: High Meadows Obseravatory
(40.7417°N, 111.5713°W)
Time: 19:19:08
(UTC-06:00)

Hubble Space Telescope - Visible Passes

Search period start: 08 August 2022 00:00
Search period end: 18 August 2022 00:00
Orbit: 532 x 535 km, 28.5° (Epoch: 08 August)

Date Brightness Start Highest point End Pass type
(mag) Time Alt. Az. Time Alt. Az. Time Alt. Az.
08 Aug 2.7 21:30:26 10° SSW 21:32:35 14° S 21:33:58 12° SSE visible
09 Aug 2.7 21:18:10 10° SSW 21:20:25 14° S 21:22:34 10° SE visible
10 Aug 2.8 21:05:58 10° SSW 21:08:16 15° S 21:10:35 10° SE visible
11 Aug 2.8 20:53:49 10° SW 20:56:07 15° S 20:58:25 10° SSE visible
